Index of /20260430/WXO-DD/model_gdps/15km/00/015
Name Last modified Size Description
Parent Directory -
20260430T00Z_MSC_GDPS_AbsoluteVorticity_IsbL-0200_LatLon0.15_PT015H.grib2 2026-04-30 03:58 1.5M
20260430T00Z_MSC_GDPS_AbsoluteVorticity_IsbL-0250_LatLon0.15_PT015H.grib2 2026-04-30 03:58 1.3M
20260430T00Z_MSC_GDPS_AbsoluteVorticity_IsbL-0500_LatLon0.15_PT015H.grib2 2026-04-30 03:58 1.2M
20260430T00Z_MSC_GDPS_AbsoluteVorticity_IsbL-0700_LatLon0.15_PT015H.grib2 2026-04-30 03:58 1.6M
20260430T00Z_MSC_GDPS_AbsoluteVorticity_IsbL-0850_LatLon0.15_PT015H.grib2 2026-04-30 03:58 1.6M
20260430T00Z_MSC_GDPS_AirTemp_AGL-120m_LatLon0.15_PT015H.grib2 2026-04-30 03:58 912K
20260430T00Z_MSC_GDPS_AirTemp_AGL-2m_LatLon0.15_PT015H.grib2 2026-04-30 03:58 1.0M
20260430T00Z_MSC_GDPS_AirTemp_AGL-40m_LatLon0.15_PT015H.grib2 2026-04-30 03:58 815K
20260430T00Z_MSC_GDPS_AirTemp_AGL-80m_LatLon0.15_PT015H.grib2 2026-04-30 03:58 803K
20260430T00Z_MSC_GDPS_AirTemp_IsbL-0001_LatLon0.15_PT015H.grib2 2026-04-30 03:58 657K
20260430T00Z_MSC_GDPS_AirTemp_IsbL-0005_LatLon0.15_PT015H.grib2 2026-04-30 03:58 689K
20260430T00Z_MSC_GDPS_AirTemp_IsbL-0010_LatLon0.15_PT015H.grib2 2026-04-30 03:58 763K
20260430T00Z_MSC_GDPS_AirTemp_IsbL-0020_LatLon0.15_PT015H.grib2 2026-04-30 03:58 788K
20260430T00Z_MSC_GDPS_AirTemp_IsbL-0030_LatLon0.15_PT015H.grib2 2026-04-30 03:58 753K
20260430T00Z_MSC_GDPS_AirTemp_IsbL-0050_LatLon0.15_PT015H.grib2 2026-04-30 03:58 807K
20260430T00Z_MSC_GDPS_AirTemp_IsbL-0100_LatLon0.15_PT015H.grib2 2026-04-30 03:58 960K
20260430T00Z_MSC_GDPS_AirTemp_IsbL-0150_LatLon0.15_PT015H.grib2 2026-04-30 03:58 1.0M
20260430T00Z_MSC_GDPS_AirTemp_IsbL-0175_LatLon0.15_PT015H.grib2 2026-04-30 03:58 964K
20260430T00Z_MSC_GDPS_AirTemp_IsbL-0200_LatLon0.15_PT015H.grib2 2026-04-30 03:58 1.0M
20260430T00Z_MSC_GDPS_AirTemp_IsbL-0225_LatLon0.15_PT015H.grib2 2026-04-30 03:58 1.0M
20260430T00Z_MSC_GDPS_AirTemp_IsbL-0250_LatLon0.15_PT015H.grib2 2026-04-30 03:58 1.0M
20260430T00Z_MSC_GDPS_AirTemp_IsbL-0275_LatLon0.15_PT015H.grib2 2026-04-30 03:58 1.0M
20260430T00Z_MSC_GDPS_AirTemp_IsbL-0300_LatLon0.15_PT015H.grib2 2026-04-30 03:58 1.0M
20260430T00Z_MSC_GDPS_AirTemp_IsbL-0350_LatLon0.15_PT015H.grib2 2026-04-30 03:58 938K
20260430T00Z_MSC_GDPS_AirTemp_IsbL-0400_LatLon0.15_PT015H.grib2 2026-04-30 03:58 946K
20260430T00Z_MSC_GDPS_AirTemp_IsbL-0450_LatLon0.15_PT015H.grib2 2026-04-30 03:58 967K
20260430T00Z_MSC_GDPS_AirTemp_IsbL-0500_LatLon0.15_PT015H.grib2 2026-04-30 03:58 769K
20260430T00Z_MSC_GDPS_AirTemp_IsbL-0550_LatLon0.15_PT015H.grib2 2026-04-30 03:58 806K
20260430T00Z_MSC_GDPS_AirTemp_IsbL-0600_LatLon0.15_PT015H.grib2 2026-04-30 03:58 902K
20260430T00Z_MSC_GDPS_AirTemp_IsbL-0650_LatLon0.15_PT015H.grib2 2026-04-30 03:58 925K
20260430T00Z_MSC_GDPS_AirTemp_IsbL-0700_LatLon0.15_PT015H.grib2 2026-04-30 03:58 957K
20260430T00Z_MSC_GDPS_AirTemp_IsbL-0750_LatLon0.15_PT015H.grib2 2026-04-30 03:58 1.0M
20260430T00Z_MSC_GDPS_AirTemp_IsbL-0800_LatLon0.15_PT015H.grib2 2026-04-30 03:58 1.1M
20260430T00Z_MSC_GDPS_AirTemp_IsbL-0850_LatLon0.15_PT015H.grib2 2026-04-30 03:58 1.1M
20260430T00Z_MSC_GDPS_AirTemp_IsbL-0875_LatLon0.15_PT015H.grib2 2026-04-30 03:58 1.1M
20260430T00Z_MSC_GDPS_AirTemp_IsbL-0900_LatLon0.15_PT015H.grib2 2026-04-30 03:58 1.1M
20260430T00Z_MSC_GDPS_AirTemp_IsbL-0925_LatLon0.15_PT015H.grib2 2026-04-30 03:58 1.1M
20260430T00Z_MSC_GDPS_AirTemp_IsbL-0950_LatLon0.15_PT015H.grib2 2026-04-30 03:58 1.1M
20260430T00Z_MSC_GDPS_AirTemp_IsbL-0970_LatLon0.15_PT015H.grib2 2026-04-30 03:58 1.2M
20260430T00Z_MSC_GDPS_AirTemp_IsbL-0985_LatLon0.15_PT015H.grib2 2026-04-30 03:58 1.2M
20260430T00Z_MSC_GDPS_AirTemp_IsbL-1000_LatLon0.15_PT015H.grib2 2026-04-30 03:58 1.1M
20260430T00Z_MSC_GDPS_AirTemp_IsbL-1015_LatLon0.15_PT015H.grib2 2026-04-30 03:58 1.1M
20260430T00Z_MSC_GDPS_Albedo_Sfc_LatLon0.15_PT015H.grib2 2026-04-30 03:58 242K
20260430T00Z_MSC_GDPS_CAPE_Sfc_LatLon0.15_PT015H.grib2 2026-04-30 03:58 4.0M
20260430T00Z_MSC_GDPS_CIN_Sfc_LatLon0.15_PT015H.grib2 2026-04-30 03:58 2.9M
20260430T00Z_MSC_GDPS_CloudWater_EAtm_LatLon0.15_PT015H.grib2 2026-04-30 03:58 534K
20260430T00Z_MSC_GDPS_ConvectivePrecip-Accum_Sfc_LatLon0.15_PT015H.grib2 2026-04-30 03:58 2.1M
20260430T00Z_MSC_GDPS_DewPointDepression_AGL-2m_LatLon0.15_PT015H.grib2 2026-04-30 03:58 765K
20260430T00Z_MSC_GDPS_DewPointDepression_IsbL-0010_LatLon0.15_PT015H.grib2 2026-04-30 03:58 58K
20260430T00Z_MSC_GDPS_DewPointDepression_IsbL-0020_LatLon0.15_PT015H.grib2 2026-04-30 03:58 64K
20260430T00Z_MSC_GDPS_DewPointDepression_IsbL-0030_LatLon0.15_PT015H.grib2 2026-04-30 03:58 71K
20260430T00Z_MSC_GDPS_DewPointDepression_IsbL-0050_LatLon0.15_PT015H.grib2 2026-04-30 03:58 370K
20260430T00Z_MSC_GDPS_DewPointDepression_IsbL-0100_LatLon0.15_PT015H.grib2 2026-04-30 03:58 419K
20260430T00Z_MSC_GDPS_DewPointDepression_IsbL-0150_LatLon0.15_PT015H.grib2 2026-04-30 03:58 461K
20260430T00Z_MSC_GDPS_DewPointDepression_IsbL-0175_LatLon0.15_PT015H.grib2 2026-04-30 03:58 559K
20260430T00Z_MSC_GDPS_DewPointDepression_IsbL-0200_LatLon0.15_PT015H.grib2 2026-04-30 03:58 684K
20260430T00Z_MSC_GDPS_DewPointDepression_IsbL-0225_LatLon0.15_PT015H.grib2 2026-04-30 03:58 800K
20260430T00Z_MSC_GDPS_DewPointDepression_IsbL-0250_LatLon0.15_PT015H.grib2 2026-04-30 03:58 887K
20260430T00Z_MSC_GDPS_DewPointDepression_IsbL-0275_LatLon0.15_PT015H.grib2 2026-04-30 03:58 896K
20260430T00Z_MSC_GDPS_DewPointDepression_IsbL-0300_LatLon0.15_PT015H.grib2 2026-04-30 03:58 939K
20260430T00Z_MSC_GDPS_DewPointDepression_IsbL-0350_LatLon0.15_PT015H.grib2 2026-04-30 03:58 957K
20260430T00Z_MSC_GDPS_DewPointDepression_IsbL-0400_LatLon0.15_PT015H.grib2 2026-04-30 03:58 1.0M
20260430T00Z_MSC_GDPS_DewPointDepression_IsbL-0450_LatLon0.15_PT015H.grib2 2026-04-30 03:58 1.0M
20260430T00Z_MSC_GDPS_DewPointDepression_IsbL-0500_LatLon0.15_PT015H.grib2 2026-04-30 03:58 1.0M
20260430T00Z_MSC_GDPS_DewPointDepression_IsbL-0550_LatLon0.15_PT015H.grib2 2026-04-30 03:58 1.0M
20260430T00Z_MSC_GDPS_DewPointDepression_IsbL-0600_LatLon0.15_PT015H.grib2 2026-04-30 03:58 1.0M
20260430T00Z_MSC_GDPS_DewPointDepression_IsbL-0650_LatLon0.15_PT015H.grib2 2026-04-30 03:58 1.1M
20260430T00Z_MSC_GDPS_DewPointDepression_IsbL-0700_LatLon0.15_PT015H.grib2 2026-04-30 03:58 1.1M
20260430T00Z_MSC_GDPS_DewPointDepression_IsbL-0750_LatLon0.15_PT015H.grib2 2026-04-30 03:58 1.1M
20260430T00Z_MSC_GDPS_DewPointDepression_IsbL-0800_LatLon0.15_PT015H.grib2 2026-04-30 03:58 1.2M
20260430T00Z_MSC_GDPS_DewPointDepression_IsbL-0850_LatLon0.15_PT015H.grib2 2026-04-30 03:58 1.2M
20260430T00Z_MSC_GDPS_DewPointDepression_IsbL-0875_LatLon0.15_PT015H.grib2 2026-04-30 03:58 1.1M
20260430T00Z_MSC_GDPS_DewPointDepression_IsbL-0900_LatLon0.15_PT015H.grib2 2026-04-30 03:58 1.1M
20260430T00Z_MSC_GDPS_DewPointDepression_IsbL-0925_LatLon0.15_PT015H.grib2 2026-04-30 03:58 1.0M
20260430T00Z_MSC_GDPS_DewPointDepression_IsbL-0950_LatLon0.15_PT015H.grib2 2026-04-30 03:58 1.0M
20260430T00Z_MSC_GDPS_DewPointDepression_IsbL-0970_LatLon0.15_PT015H.grib2 2026-04-30 03:58 1.0M
20260430T00Z_MSC_GDPS_DewPointDepression_IsbL-0985_LatLon0.15_PT015H.grib2 2026-04-30 03:58 1.0M
20260430T00Z_MSC_GDPS_DewPointDepression_IsbL-1000_LatLon0.15_PT015H.grib2 2026-04-30 03:58 1.0M
20260430T00Z_MSC_GDPS_DewPointDepression_IsbL-1015_LatLon0.15_PT015H.grib2 2026-04-30 03:58 923K
20260430T00Z_MSC_GDPS_DewPoint_AGL-2m_LatLon0.15_PT015H.grib2 2026-04-30 03:58 614K
20260430T00Z_MSC_GDPS_DownwardLongwaveRadiationFlux-Accum_Sfc_LatLon0.15_PT015H.grib2 2026-04-30 03:58 826K
20260430T00Z_MSC_GDPS_DownwardShortwaveRadiationFlux-Accum_NTAtm_LatLon0.15_PT015H.grib2 2026-04-30 03:58 366K
20260430T00Z_MSC_GDPS_DownwardShortwaveRadiationFlux-Accum_Sfc_LatLon0.15_PT015H.grib2 2026-04-30 03:58 1.0M
20260430T00Z_MSC_GDPS_FreezingRain-Accum1h_Sfc_LatLon0.15_PT015H.grib2 2026-04-30 03:58 48K
20260430T00Z_MSC_GDPS_FreezingRain-Accum3h_Sfc_LatLon0.15_PT015H.grib2 2026-04-30 03:58 70K
20260430T00Z_MSC_GDPS_FreezingRain-Accum_Sfc_LatLon0.15_PT015H.grib2 2026-04-30 03:58 130K
20260430T00Z_MSC_GDPS_GeopotentialHeight_IsbL-0001_LatLon0.15_PT015H.grib2 2026-04-30 03:58 392K
20260430T00Z_MSC_GDPS_GeopotentialHeight_IsbL-0005_LatLon0.15_PT015H.grib2 2026-04-30 03:58 496K
20260430T00Z_MSC_GDPS_GeopotentialHeight_IsbL-0010_LatLon0.15_PT015H.grib2 2026-04-30 03:58 485K
20260430T00Z_MSC_GDPS_GeopotentialHeight_IsbL-0020_LatLon0.15_PT015H.grib2 2026-04-30 03:58 423K
20260430T00Z_MSC_GDPS_GeopotentialHeight_IsbL-0030_LatLon0.15_PT015H.grib2 2026-04-30 03:58 581K
20260430T00Z_MSC_GDPS_GeopotentialHeight_IsbL-0050_LatLon0.15_PT015H.grib2 2026-04-30 03:58 582K
20260430T00Z_MSC_GDPS_GeopotentialHeight_IsbL-0100_LatLon0.15_PT015H.grib2 2026-04-30 03:58 614K
20260430T00Z_MSC_GDPS_GeopotentialHeight_IsbL-0150_LatLon0.15_PT015H.grib2 2026-04-30 03:58 635K
20260430T00Z_MSC_GDPS_GeopotentialHeight_IsbL-0175_LatLon0.15_PT015H.grib2 2026-04-30 03:58 478K
20260430T00Z_MSC_GDPS_GeopotentialHeight_IsbL-0200_LatLon0.15_PT015H.grib2 2026-04-30 03:58 481K
20260430T00Z_MSC_GDPS_GeopotentialHeight_IsbL-0225_LatLon0.15_PT015H.grib2 2026-04-30 03:58 644K
20260430T00Z_MSC_GDPS_GeopotentialHeight_IsbL-0250_LatLon0.15_PT015H.grib2 2026-04-30 03:58 646K
20260430T00Z_MSC_GDPS_GeopotentialHeight_IsbL-0275_LatLon0.15_PT015H.grib2 2026-04-30 03:58 644K
20260430T00Z_MSC_GDPS_GeopotentialHeight_IsbL-0300_LatLon0.15_PT015H.grib2 2026-04-30 03:58 643K
20260430T00Z_MSC_GDPS_GeopotentialHeight_IsbL-0350_LatLon0.15_PT015H.grib2 2026-04-30 03:58 633K
20260430T00Z_MSC_GDPS_GeopotentialHeight_IsbL-0400_LatLon0.15_PT015H.grib2 2026-04-30 03:58 626K
20260430T00Z_MSC_GDPS_GeopotentialHeight_IsbL-0450_LatLon0.15_PT015H.grib2 2026-04-30 03:58 616K
20260430T00Z_MSC_GDPS_GeopotentialHeight_IsbL-0500_LatLon0.15_PT015H.grib2 2026-04-30 03:58 538K
20260430T00Z_MSC_GDPS_GeopotentialHeight_IsbL-0550_LatLon0.15_PT015H.grib2 2026-04-30 03:58 530K
20260430T00Z_MSC_GDPS_GeopotentialHeight_IsbL-0600_LatLon0.15_PT015H.grib2 2026-04-30 03:58 525K
20260430T00Z_MSC_GDPS_GeopotentialHeight_IsbL-0650_LatLon0.15_PT015H.grib2 2026-04-30 03:58 691K
20260430T00Z_MSC_GDPS_GeopotentialHeight_IsbL-0700_LatLon0.15_PT015H.grib2 2026-04-30 03:58 688K
20260430T00Z_MSC_GDPS_GeopotentialHeight_IsbL-0750_LatLon0.15_PT015H.grib2 2026-04-30 03:58 695K
20260430T00Z_MSC_GDPS_GeopotentialHeight_IsbL-0800_LatLon0.15_PT015H.grib2 2026-04-30 03:58 703K
20260430T00Z_MSC_GDPS_GeopotentialHeight_IsbL-0850_LatLon0.15_PT015H.grib2 2026-04-30 03:58 712K
20260430T00Z_MSC_GDPS_GeopotentialHeight_IsbL-0875_LatLon0.15_PT015H.grib2 2026-04-30 03:58 716K
20260430T00Z_MSC_GDPS_GeopotentialHeight_IsbL-0900_LatLon0.15_PT015H.grib2 2026-04-30 03:58 723K
20260430T00Z_MSC_GDPS_GeopotentialHeight_IsbL-0925_LatLon0.15_PT015H.grib2 2026-04-30 03:58 731K
20260430T00Z_MSC_GDPS_GeopotentialHeight_IsbL-0950_LatLon0.15_PT015H.grib2 2026-04-30 03:58 733K
20260430T00Z_MSC_GDPS_GeopotentialHeight_IsbL-0970_LatLon0.15_PT015H.grib2 2026-04-30 03:58 749K
20260430T00Z_MSC_GDPS_GeopotentialHeight_IsbL-0985_LatLon0.15_PT015H.grib2 2026-04-30 03:58 766K
20260430T00Z_MSC_GDPS_GeopotentialHeight_IsbL-1000_LatLon0.15_PT015H.grib2 2026-04-30 03:58 789K
20260430T00Z_MSC_GDPS_GeopotentialHeight_IsbL-1015_LatLon0.15_PT015H.grib2 2026-04-30 03:58 814K
20260430T00Z_MSC_GDPS_Humidex_Sfc_LatLon0.15_PT015H.grib2 2026-04-30 03:58 5.3M
20260430T00Z_MSC_GDPS_IcePellets-Accum1h_Sfc_LatLon0.15_PT015H.grib2 2026-04-30 03:58 9.5K
20260430T00Z_MSC_GDPS_IcePellets-Accum3h_Sfc_LatLon0.15_PT015H.grib2 2026-04-30 03:58 11K
20260430T00Z_MSC_GDPS_IcePellets-Accum_Sfc_LatLon0.15_PT015H.grib2 2026-04-30 03:58 19K
20260430T00Z_MSC_GDPS_KIndex_Sfc_LatLon0.15_PT015H.grib2 2026-04-30 03:58 6.5M
20260430T00Z_MSC_GDPS_LatentHeatNetFlux_Sfc_LatLon0.15_PT015H.grib2 2026-04-30 03:58 701K
20260430T00Z_MSC_GDPS_LiftedIndex-MU-VT_IsbL-0500_LatLon0.15_PT015H.grib2 2026-04-30 03:58 5.4M
20260430T00Z_MSC_GDPS_NetLongwaveRadiationFlux-Accum_Sfc_LatLon0.15_PT015H.grib2 2026-04-30 03:58 1.1M
20260430T00Z_MSC_GDPS_NetShortwaveRadiationFlux-Accum_Sfc_LatLon0.15_PT015H.grib2 2026-04-30 03:58 1.0M
20260430T00Z_MSC_GDPS_O3MixingRatio_Sfc_LatLon0.15_PT015H.grib2 2026-04-30 04:49 2.4M
20260430T00Z_MSC_GDPS_O3_EAtm_LatLon0.15_PT015H.grib2 2026-04-30 04:49 2.5M
20260430T00Z_MSC_GDPS_PlanetaryBoundaryLayerHeight_Sfc_LatLon0.15_PT015H.grib2 2026-04-30 03:58 2.5M
20260430T00Z_MSC_GDPS_Precip-Accum1h_Sfc_LatLon0.15_PT015H.grib2 2026-04-30 03:58 3.2M
20260430T00Z_MSC_GDPS_Precip-Accum3h_Sfc_LatLon0.15_PT015H.grib2 2026-04-30 03:58 3.5M
20260430T00Z_MSC_GDPS_Precip-Accum_Sfc_LatLon0.15_PT015H.grib2 2026-04-30 03:58 4.0M
20260430T00Z_MSC_GDPS_PrecipRate_Sfc_LatLon0.15_PT015H.grib2 2026-04-30 03:58 3.0M
20260430T00Z_MSC_GDPS_PrecipType-Instant_Sfc_LatLon0.15_PT015H.grib2 2026-04-30 03:58 1.6M
20260430T00Z_MSC_GDPS_Pressure_MSL_LatLon0.15_PT015H.grib2 2026-04-30 03:58 725K
20260430T00Z_MSC_GDPS_Pressure_PVU-1.5_LatLon0.15_PT015H.grib2 2026-04-30 03:58 5.8M
20260430T00Z_MSC_GDPS_Pressure_PVU-1_LatLon0.15_PT015H.grib2 2026-04-30 03:58 6.0M
20260430T00Z_MSC_GDPS_Pressure_PVU-2_LatLon0.15_PT015H.grib2 2026-04-30 03:58 5.6M
20260430T00Z_MSC_GDPS_Pressure_Sfc_LatLon0.15_PT015H.grib2 2026-04-30 03:58 1.1M
20260430T00Z_MSC_GDPS_RadiativeTemp_Sfc_LatLon0.15_PT015H.grib2 2026-04-30 03:58 494K
20260430T00Z_MSC_GDPS_Rain-Accum1h_Sfc_LatLon0.15_PT015H.grib2 2026-04-30 03:58 1.7M
20260430T00Z_MSC_GDPS_Rain-Accum3h_Sfc_LatLon0.15_PT015H.grib2 2026-04-30 03:58 1.9M
20260430T00Z_MSC_GDPS_Rain-Accum_Sfc_LatLon0.15_PT015H.grib2 2026-04-30 03:58 2.9M
20260430T00Z_MSC_GDPS_RelativeHumidity_AGL-2m_LatLon0.15_PT015H.grib2 2026-04-30 03:58 1.0M
20260430T00Z_MSC_GDPS_RelativeHumidity_IsbL-0010_LatLon0.15_PT015H.grib2 2026-04-30 03:58 202K
20260430T00Z_MSC_GDPS_RelativeHumidity_IsbL-0020_LatLon0.15_PT015H.grib2 2026-04-30 03:58 173K
20260430T00Z_MSC_GDPS_RelativeHumidity_IsbL-0030_LatLon0.15_PT015H.grib2 2026-04-30 03:58 271K
20260430T00Z_MSC_GDPS_RelativeHumidity_IsbL-0050_LatLon0.15_PT015H.grib2 2026-04-30 03:58 513K
20260430T00Z_MSC_GDPS_RelativeHumidity_IsbL-0100_LatLon0.15_PT015H.grib2 2026-04-30 03:58 520K
20260430T00Z_MSC_GDPS_RelativeHumidity_IsbL-0150_LatLon0.15_PT015H.grib2 2026-04-30 03:58 661K
20260430T00Z_MSC_GDPS_RelativeHumidity_IsbL-0175_LatLon0.15_PT015H.grib2 2026-04-30 03:58 773K
20260430T00Z_MSC_GDPS_RelativeHumidity_IsbL-0200_LatLon0.15_PT015H.grib2 2026-04-30 03:58 694K
20260430T00Z_MSC_GDPS_RelativeHumidity_IsbL-0225_LatLon0.15_PT015H.grib2 2026-04-30 03:58 790K
20260430T00Z_MSC_GDPS_RelativeHumidity_IsbL-0250_LatLon0.15_PT015H.grib2 2026-04-30 03:58 872K
20260430T00Z_MSC_GDPS_RelativeHumidity_IsbL-0275_LatLon0.15_PT015H.grib2 2026-04-30 03:58 892K
20260430T00Z_MSC_GDPS_RelativeHumidity_IsbL-0300_LatLon0.15_PT015H.grib2 2026-04-30 03:58 935K
20260430T00Z_MSC_GDPS_RelativeHumidity_IsbL-0350_LatLon0.15_PT015H.grib2 2026-04-30 03:58 954K
20260430T00Z_MSC_GDPS_RelativeHumidity_IsbL-0400_LatLon0.15_PT015H.grib2 2026-04-30 03:58 973K
20260430T00Z_MSC_GDPS_RelativeHumidity_IsbL-0450_LatLon0.15_PT015H.grib2 2026-04-30 03:58 1.0M
20260430T00Z_MSC_GDPS_RelativeHumidity_IsbL-0500_LatLon0.15_PT015H.grib2 2026-04-30 03:58 1.0M
20260430T00Z_MSC_GDPS_RelativeHumidity_IsbL-0550_LatLon0.15_PT015H.grib2 2026-04-30 03:58 1.1M
20260430T00Z_MSC_GDPS_RelativeHumidity_IsbL-0600_LatLon0.15_PT015H.grib2 2026-04-30 03:58 1.1M
20260430T00Z_MSC_GDPS_RelativeHumidity_IsbL-0650_LatLon0.15_PT015H.grib2 2026-04-30 03:58 1.1M
20260430T00Z_MSC_GDPS_RelativeHumidity_IsbL-0700_LatLon0.15_PT015H.grib2 2026-04-30 03:58 1.1M
20260430T00Z_MSC_GDPS_RelativeHumidity_IsbL-0750_LatLon0.15_PT015H.grib2 2026-04-30 03:58 1.2M
20260430T00Z_MSC_GDPS_RelativeHumidity_IsbL-0800_LatLon0.15_PT015H.grib2 2026-04-30 03:58 1.2M
20260430T00Z_MSC_GDPS_RelativeHumidity_IsbL-0850_LatLon0.15_PT015H.grib2 2026-04-30 03:58 1.3M
20260430T00Z_MSC_GDPS_RelativeHumidity_IsbL-0875_LatLon0.15_PT015H.grib2 2026-04-30 03:58 1.3M
20260430T00Z_MSC_GDPS_RelativeHumidity_IsbL-0900_LatLon0.15_PT015H.grib2 2026-04-30 03:58 1.2M
20260430T00Z_MSC_GDPS_RelativeHumidity_IsbL-0925_LatLon0.15_PT015H.grib2 2026-04-30 03:58 1.2M
20260430T00Z_MSC_GDPS_RelativeHumidity_IsbL-0950_LatLon0.15_PT015H.grib2 2026-04-30 03:58 1.2M
20260430T00Z_MSC_GDPS_RelativeHumidity_IsbL-0970_LatLon0.15_PT015H.grib2 2026-04-30 03:58 1.2M
20260430T00Z_MSC_GDPS_RelativeHumidity_IsbL-0985_LatLon0.15_PT015H.grib2 2026-04-30 03:58 1.2M
20260430T00Z_MSC_GDPS_RelativeHumidity_IsbL-1000_LatLon0.15_PT015H.grib2 2026-04-30 03:58 1.1M
20260430T00Z_MSC_GDPS_RelativeHumidity_IsbL-1015_LatLon0.15_PT015H.grib2 2026-04-30 03:58 1.1M
20260430T00Z_MSC_GDPS_RelativeVorticity_IsbL-0200_LatLon0.15_PT015H.grib2 2026-04-30 03:58 1.5M
20260430T00Z_MSC_GDPS_RelativeVorticity_IsbL-0250_LatLon0.15_PT015H.grib2 2026-04-30 03:58 1.3M
20260430T00Z_MSC_GDPS_RelativeVorticity_IsbL-0500_LatLon0.15_PT015H.grib2 2026-04-30 03:58 1.2M
20260430T00Z_MSC_GDPS_RelativeVorticity_IsbL-0700_LatLon0.15_PT015H.grib2 2026-04-30 03:58 1.6M
20260430T00Z_MSC_GDPS_RelativeVorticity_IsbL-0850_LatLon0.15_PT015H.grib2 2026-04-30 03:58 1.6M
20260430T00Z_MSC_GDPS_Runoff-Accum_Sfc_LatLon0.15_PT015H.grib2 2026-04-30 03:58 93K
20260430T00Z_MSC_GDPS_SensibleHeatNetFlux_Sfc_LatLon0.15_PT015H.grib2 2026-04-30 03:58 644K
20260430T00Z_MSC_GDPS_ShowalterIndex_IsbL-0500_LatLon0.15_PT015H.grib2 2026-04-30 03:58 6.2M
20260430T00Z_MSC_GDPS_Snow-Accum1h_Sfc_LatLon0.15_PT015H.grib2 2026-04-30 03:58 1.0M
20260430T00Z_MSC_GDPS_Snow-Accum3h_Sfc_LatLon0.15_PT015H.grib2 2026-04-30 03:58 1.1M
20260430T00Z_MSC_GDPS_Snow-Accum_Sfc_LatLon0.15_PT015H.grib2 2026-04-30 03:58 1.6M
20260430T00Z_MSC_GDPS_SnowDensity_Sfc_LatLon0.15_PT015H.grib2 2026-04-30 03:58 257K
20260430T00Z_MSC_GDPS_SnowDepth_Sfc_LatLon0.15_PT015H.grib2 2026-04-30 03:58 1.7M
20260430T00Z_MSC_GDPS_SoilTemp_DBS-0to10cm_LatLon0.15_PT015H.grib2 2026-04-30 03:58 500K
20260430T00Z_MSC_GDPS_SoilTemp_Sfc_LatLon0.15_PT015H.grib2 2026-04-30 03:58 583K
20260430T00Z_MSC_GDPS_SoilVolumetricIceContent_Sfc_LatLon0.15_PT015H.grib2 2026-04-30 03:58 207K
20260430T00Z_MSC_GDPS_SoilVolumetricWaterContent_DBS-0to10cm_LatLon0.15_PT015H.grib2 2026-04-30 03:58 583K
20260430T00Z_MSC_GDPS_SoilVolumetricWaterContent_DBS-0to1cm_LatLon0.15_PT015H.grib2 2026-04-30 03:58 645K
20260430T00Z_MSC_GDPS_SpecificHumidity_AGL-120m_LatLon0.15_PT015H.grib2 2026-04-30 03:58 1.1M
20260430T00Z_MSC_GDPS_SpecificHumidity_AGL-2m_LatLon0.15_PT015H.grib2 2026-04-30 03:58 1.2M
20260430T00Z_MSC_GDPS_SpecificHumidity_AGL-40m_LatLon0.15_PT015H.grib2 2026-04-30 03:58 1.1M
20260430T00Z_MSC_GDPS_SpecificHumidity_AGL-80m_LatLon0.15_PT015H.grib2 2026-04-30 03:58 1.1M
20260430T00Z_MSC_GDPS_SpecificHumidity_IsbL-0001_LatLon0.15_PT015H.grib2 2026-04-30 03:58 1.3M
20260430T00Z_MSC_GDPS_SpecificHumidity_IsbL-0005_LatLon0.15_PT015H.grib2 2026-04-30 03:58 1.3M
20260430T00Z_MSC_GDPS_SpecificHumidity_IsbL-0010_LatLon0.15_PT015H.grib2 2026-04-30 03:58 1.4M
20260430T00Z_MSC_GDPS_SpecificHumidity_IsbL-0020_LatLon0.15_PT015H.grib2 2026-04-30 03:58 1.4M
20260430T00Z_MSC_GDPS_SpecificHumidity_IsbL-0030_LatLon0.15_PT015H.grib2 2026-04-30 03:58 1.4M
20260430T00Z_MSC_GDPS_SpecificHumidity_IsbL-0050_LatLon0.15_PT015H.grib2 2026-04-30 03:58 1.4M
20260430T00Z_MSC_GDPS_SpecificHumidity_IsbL-0100_LatLon0.15_PT015H.grib2 2026-04-30 03:58 1.1M
20260430T00Z_MSC_GDPS_SpecificHumidity_IsbL-0150_LatLon0.15_PT015H.grib2 2026-04-30 03:58 1.0M
20260430T00Z_MSC_GDPS_SpecificHumidity_IsbL-0175_LatLon0.15_PT015H.grib2 2026-04-30 03:58 1.2M
20260430T00Z_MSC_GDPS_SpecificHumidity_IsbL-0200_LatLon0.15_PT015H.grib2 2026-04-30 03:58 1.3M
20260430T00Z_MSC_GDPS_SpecificHumidity_IsbL-0225_LatLon0.15_PT015H.grib2 2026-04-30 03:58 1.3M
20260430T00Z_MSC_GDPS_SpecificHumidity_IsbL-0250_LatLon0.15_PT015H.grib2 2026-04-30 03:58 1.4M
20260430T00Z_MSC_GDPS_SpecificHumidity_IsbL-0275_LatLon0.15_PT015H.grib2 2026-04-30 03:58 1.3M
20260430T00Z_MSC_GDPS_SpecificHumidity_IsbL-0300_LatLon0.15_PT015H.grib2 2026-04-30 03:58 1.2M
20260430T00Z_MSC_GDPS_SpecificHumidity_IsbL-0350_LatLon0.15_PT015H.grib2 2026-04-30 03:58 1.2M
20260430T00Z_MSC_GDPS_SpecificHumidity_IsbL-0400_LatLon0.15_PT015H.grib2 2026-04-30 03:58 1.5M
20260430T00Z_MSC_GDPS_SpecificHumidity_IsbL-0450_LatLon0.15_PT015H.grib2 2026-04-30 03:58 1.6M
20260430T00Z_MSC_GDPS_SpecificHumidity_IsbL-0500_LatLon0.15_PT015H.grib2 2026-04-30 03:58 1.4M
20260430T00Z_MSC_GDPS_SpecificHumidity_IsbL-0550_LatLon0.15_PT015H.grib2 2026-04-30 03:58 1.6M
20260430T00Z_MSC_GDPS_SpecificHumidity_IsbL-0600_LatLon0.15_PT015H.grib2 2026-04-30 03:58 1.7M
20260430T00Z_MSC_GDPS_SpecificHumidity_IsbL-0650_LatLon0.15_PT015H.grib2 2026-04-30 03:58 1.5M
20260430T00Z_MSC_GDPS_SpecificHumidity_IsbL-0700_LatLon0.15_PT015H.grib2 2026-04-30 03:58 1.6M
20260430T00Z_MSC_GDPS_SpecificHumidity_IsbL-0750_LatLon0.15_PT015H.grib2 2026-04-30 03:58 1.7M
20260430T00Z_MSC_GDPS_SpecificHumidity_IsbL-0800_LatLon0.15_PT015H.grib2 2026-04-30 03:58 1.8M
20260430T00Z_MSC_GDPS_SpecificHumidity_IsbL-0850_LatLon0.15_PT015H.grib2 2026-04-30 03:58 1.9M
20260430T00Z_MSC_GDPS_SpecificHumidity_IsbL-0875_LatLon0.15_PT015H.grib2 2026-04-30 03:58 1.9M
20260430T00Z_MSC_GDPS_SpecificHumidity_IsbL-0900_LatLon0.15_PT015H.grib2 2026-04-30 03:58 1.9M
20260430T00Z_MSC_GDPS_SpecificHumidity_IsbL-0925_LatLon0.15_PT015H.grib2 2026-04-30 03:58 1.6M
20260430T00Z_MSC_GDPS_SpecificHumidity_IsbL-0950_LatLon0.15_PT015H.grib2 2026-04-30 03:58 1.6M
20260430T00Z_MSC_GDPS_SpecificHumidity_IsbL-0970_LatLon0.15_PT015H.grib2 2026-04-30 03:58 1.5M
20260430T00Z_MSC_GDPS_SpecificHumidity_IsbL-0985_LatLon0.15_PT015H.grib2 2026-04-30 03:58 1.5M
20260430T00Z_MSC_GDPS_SpecificHumidity_IsbL-1000_LatLon0.15_PT015H.grib2 2026-04-30 03:58 1.5M
20260430T00Z_MSC_GDPS_SpecificHumidity_IsbL-1015_LatLon0.15_PT015H.grib2 2026-04-30 03:58 1.5M
20260430T00Z_MSC_GDPS_SpecificHumidity_Sfc_LatLon0.15_PT015H.grib2 2026-04-30 03:58 669K
20260430T00Z_MSC_GDPS_Thickness_IsbL-0850to0700_LatLon0.15_PT015H.grib2 2026-04-30 03:58 469K
20260430T00Z_MSC_GDPS_Thickness_IsbL-1000to0500_LatLon0.15_PT015H.grib2 2026-04-30 03:58 371K
20260430T00Z_MSC_GDPS_Thickness_IsbL-1000to0850_LatLon0.15_PT015H.grib2 2026-04-30 03:58 491K
20260430T00Z_MSC_GDPS_TotalCloudCover_Sfc_LatLon0.15_PT015H.grib2 2026-04-30 03:58 831K
20260430T00Z_MSC_GDPS_TotalTotalsIndex_Sfc_LatLon0.15_PT015H.grib2 2026-04-30 03:58 6.2M
20260430T00Z_MSC_GDPS_UVIndex-ClearSky_Sfc_LatLon0.15_PT015H.grib2 2026-04-30 04:49 1.0M
20260430T00Z_MSC_GDPS_UVIndex_Sfc_LatLon0.15_PT015H.grib2 2026-04-30 04:49 1.5M
20260430T00Z_MSC_GDPS_UpwardLongwaveRadiationFlux_NTAtm_LatLon0.15_PT015H.grib2 2026-04-30 03:58 846K
20260430T00Z_MSC_GDPS_VerticalVelocity_IsbL-0200_LatLon0.15_PT015H.grib2 2026-04-30 03:58 1.2M
20260430T00Z_MSC_GDPS_VerticalVelocity_IsbL-0250_LatLon0.15_PT015H.grib2 2026-04-30 03:58 1.0M
20260430T00Z_MSC_GDPS_VerticalVelocity_IsbL-0500_LatLon0.15_PT015H.grib2 2026-04-30 03:58 1.3M
20260430T00Z_MSC_GDPS_VerticalVelocity_IsbL-0600_LatLon0.15_PT015H.grib2 2026-04-30 03:58 1.1M
20260430T00Z_MSC_GDPS_VerticalVelocity_IsbL-0700_LatLon0.15_PT015H.grib2 2026-04-30 03:58 1.4M
20260430T00Z_MSC_GDPS_VerticalVelocity_IsbL-0850_LatLon0.15_PT015H.grib2 2026-04-30 03:58 1.6M
20260430T00Z_MSC_GDPS_WindChill_Sfc_LatLon0.15_PT015H.grib2 2026-04-30 03:58 5.3M
20260430T00Z_MSC_GDPS_WindDir_AGL-10m_LatLon0.15_PT015H.grib2 2026-04-30 03:58 1.3M
20260430T00Z_MSC_GDPS_WindDir_AGL-120m_LatLon0.15_PT015H.grib2 2026-04-30 03:58 1.4M
20260430T00Z_MSC_GDPS_WindDir_AGL-40m_LatLon0.15_PT015H.grib2 2026-04-30 03:58 1.4M
20260430T00Z_MSC_GDPS_WindDir_AGL-80m_LatLon0.15_PT015H.grib2 2026-04-30 03:58 1.4M
20260430T00Z_MSC_GDPS_WindDir_IsbL-0001_LatLon0.15_PT015H.grib2 2026-04-30 03:58 666K
20260430T00Z_MSC_GDPS_WindDir_IsbL-0005_LatLon0.15_PT015H.grib2 2026-04-30 03:58 805K
20260430T00Z_MSC_GDPS_WindDir_IsbL-0010_LatLon0.15_PT015H.grib2 2026-04-30 03:58 846K
20260430T00Z_MSC_GDPS_WindDir_IsbL-0020_LatLon0.15_PT015H.grib2 2026-04-30 03:58 936K
20260430T00Z_MSC_GDPS_WindDir_IsbL-0030_LatLon0.15_PT015H.grib2 2026-04-30 03:58 923K
20260430T00Z_MSC_GDPS_WindDir_IsbL-0050_LatLon0.15_PT015H.grib2 2026-04-30 03:58 957K
20260430T00Z_MSC_GDPS_WindDir_IsbL-0100_LatLon0.15_PT015H.grib2 2026-04-30 03:58 1.0M
20260430T00Z_MSC_GDPS_WindDir_IsbL-0150_LatLon0.15_PT015H.grib2 2026-04-30 03:58 1.0M
20260430T00Z_MSC_GDPS_WindDir_IsbL-0175_LatLon0.15_PT015H.grib2 2026-04-30 03:58 1.1M
20260430T00Z_MSC_GDPS_WindDir_IsbL-0200_LatLon0.15_PT015H.grib2 2026-04-30 03:58 1.1M
20260430T00Z_MSC_GDPS_WindDir_IsbL-0225_LatLon0.15_PT015H.grib2 2026-04-30 03:58 1.1M
20260430T00Z_MSC_GDPS_WindDir_IsbL-0250_LatLon0.15_PT015H.grib2 2026-04-30 03:58 1.1M
20260430T00Z_MSC_GDPS_WindDir_IsbL-0275_LatLon0.15_PT015H.grib2 2026-04-30 03:58 1.2M
20260430T00Z_MSC_GDPS_WindDir_IsbL-0300_LatLon0.15_PT015H.grib2 2026-04-30 03:58 1.2M
20260430T00Z_MSC_GDPS_WindDir_IsbL-0350_LatLon0.15_PT015H.grib2 2026-04-30 03:58 1.2M
20260430T00Z_MSC_GDPS_WindDir_IsbL-0400_LatLon0.15_PT015H.grib2 2026-04-30 03:58 1.3M
20260430T00Z_MSC_GDPS_WindDir_IsbL-0450_LatLon0.15_PT015H.grib2 2026-04-30 03:58 1.3M
20260430T00Z_MSC_GDPS_WindDir_IsbL-0500_LatLon0.15_PT015H.grib2 2026-04-30 03:58 1.3M
20260430T00Z_MSC_GDPS_WindDir_IsbL-0550_LatLon0.15_PT015H.grib2 2026-04-30 03:58 1.4M
20260430T00Z_MSC_GDPS_WindDir_IsbL-0600_LatLon0.15_PT015H.grib2 2026-04-30 03:58 1.5M
20260430T00Z_MSC_GDPS_WindDir_IsbL-0650_LatLon0.15_PT015H.grib2 2026-04-30 03:58 1.5M
20260430T00Z_MSC_GDPS_WindDir_IsbL-0700_LatLon0.15_PT015H.grib2 2026-04-30 03:58 1.6M
20260430T00Z_MSC_GDPS_WindDir_IsbL-0750_LatLon0.15_PT015H.grib2 2026-04-30 03:58 1.7M
20260430T00Z_MSC_GDPS_WindDir_IsbL-0800_LatLon0.15_PT015H.grib2 2026-04-30 03:58 1.8M
20260430T00Z_MSC_GDPS_WindDir_IsbL-0850_LatLon0.15_PT015H.grib2 2026-04-30 03:58 2.0M
20260430T00Z_MSC_GDPS_WindDir_IsbL-0875_LatLon0.15_PT015H.grib2 2026-04-30 03:58 2.0M
20260430T00Z_MSC_GDPS_WindDir_IsbL-0900_LatLon0.15_PT015H.grib2 2026-04-30 03:58 2.0M
20260430T00Z_MSC_GDPS_WindDir_IsbL-0925_LatLon0.15_PT015H.grib2 2026-04-30 03:58 2.0M
20260430T00Z_MSC_GDPS_WindDir_IsbL-0950_LatLon0.15_PT015H.grib2 2026-04-30 03:58 2.0M
20260430T00Z_MSC_GDPS_WindDir_IsbL-0970_LatLon0.15_PT015H.grib2 2026-04-30 03:58 2.0M
20260430T00Z_MSC_GDPS_WindDir_IsbL-0985_LatLon0.15_PT015H.grib2 2026-04-30 03:58 2.0M
20260430T00Z_MSC_GDPS_WindDir_IsbL-1000_LatLon0.15_PT015H.grib2 2026-04-30 03:58 2.1M
20260430T00Z_MSC_GDPS_WindDir_IsbL-1015_LatLon0.15_PT015H.grib2 2026-04-30 03:58 2.1M
20260430T00Z_MSC_GDPS_WindGust-Max_AGL-10m_LatLon0.15_PT015H.grib2 2026-04-30 03:58 2.2M
20260430T00Z_MSC_GDPS_WindGust-Min_AGL-10m_LatLon0.15_PT015H.grib2 2026-04-30 03:58 2.2M
20260430T00Z_MSC_GDPS_WindGust_AGL-10m_LatLon0.15_PT015H.grib2 2026-04-30 03:58 2.2M
20260430T00Z_MSC_GDPS_WindSpeed_AGL-10m_LatLon0.15_PT015H.grib2 2026-04-30 03:58 1.1M
20260430T00Z_MSC_GDPS_WindSpeed_AGL-120m_LatLon0.15_PT015H.grib2 2026-04-30 03:58 1.3M
20260430T00Z_MSC_GDPS_WindSpeed_AGL-40m_LatLon0.15_PT015H.grib2 2026-04-30 03:58 1.2M
20260430T00Z_MSC_GDPS_WindSpeed_AGL-80m_LatLon0.15_PT015H.grib2 2026-04-30 03:58 1.3M
20260430T00Z_MSC_GDPS_WindSpeed_IsbL-0001_LatLon0.15_PT015H.grib2 2026-04-30 03:58 647K
20260430T00Z_MSC_GDPS_WindSpeed_IsbL-0005_LatLon0.15_PT015H.grib2 2026-04-30 03:58 619K
20260430T00Z_MSC_GDPS_WindSpeed_IsbL-0010_LatLon0.15_PT015H.grib2 2026-04-30 03:58 635K
20260430T00Z_MSC_GDPS_WindSpeed_IsbL-0020_LatLon0.15_PT015H.grib2 2026-04-30 03:58 864K
20260430T00Z_MSC_GDPS_WindSpeed_IsbL-0030_LatLon0.15_PT015H.grib2 2026-04-30 03:58 870K
20260430T00Z_MSC_GDPS_WindSpeed_IsbL-0050_LatLon0.15_PT015H.grib2 2026-04-30 03:58 913K
20260430T00Z_MSC_GDPS_WindSpeed_IsbL-0100_LatLon0.15_PT015H.grib2 2026-04-30 03:58 1.1M
20260430T00Z_MSC_GDPS_WindSpeed_IsbL-0150_LatLon0.15_PT015H.grib2 2026-04-30 03:58 1.0M
20260430T00Z_MSC_GDPS_WindSpeed_IsbL-0175_LatLon0.15_PT015H.grib2 2026-04-30 03:58 1.0M
20260430T00Z_MSC_GDPS_WindSpeed_IsbL-0200_LatLon0.15_PT015H.grib2 2026-04-30 03:58 1.1M
20260430T00Z_MSC_GDPS_WindSpeed_IsbL-0225_LatLon0.15_PT015H.grib2 2026-04-30 03:58 1.1M
20260430T00Z_MSC_GDPS_WindSpeed_IsbL-0250_LatLon0.15_PT015H.grib2 2026-04-30 03:58 1.1M
20260430T00Z_MSC_GDPS_WindSpeed_IsbL-0275_LatLon0.15_PT015H.grib2 2026-04-30 03:58 1.1M
20260430T00Z_MSC_GDPS_WindSpeed_IsbL-0300_LatLon0.15_PT015H.grib2 2026-04-30 03:58 1.1M
20260430T00Z_MSC_GDPS_WindSpeed_IsbL-0350_LatLon0.15_PT015H.grib2 2026-04-30 03:58 1.1M
20260430T00Z_MSC_GDPS_WindSpeed_IsbL-0400_LatLon0.15_PT015H.grib2 2026-04-30 03:58 1.1M
20260430T00Z_MSC_GDPS_WindSpeed_IsbL-0450_LatLon0.15_PT015H.grib2 2026-04-30 03:58 1.1M
20260430T00Z_MSC_GDPS_WindSpeed_IsbL-0500_LatLon0.15_PT015H.grib2 2026-04-30 03:58 1.1M
20260430T00Z_MSC_GDPS_WindSpeed_IsbL-0550_LatLon0.15_PT015H.grib2 2026-04-30 03:58 1.1M
20260430T00Z_MSC_GDPS_WindSpeed_IsbL-0600_LatLon0.15_PT015H.grib2 2026-04-30 03:58 1.1M
20260430T00Z_MSC_GDPS_WindSpeed_IsbL-0650_LatLon0.15_PT015H.grib2 2026-04-30 03:58 1.2M
20260430T00Z_MSC_GDPS_WindSpeed_IsbL-0700_LatLon0.15_PT015H.grib2 2026-04-30 03:58 1.5M
20260430T00Z_MSC_GDPS_WindSpeed_IsbL-0750_LatLon0.15_PT015H.grib2 2026-04-30 03:58 1.6M
20260430T00Z_MSC_GDPS_WindSpeed_IsbL-0800_LatLon0.15_PT015H.grib2 2026-04-30 03:58 1.7M
20260430T00Z_MSC_GDPS_WindSpeed_IsbL-0850_LatLon0.15_PT015H.grib2 2026-04-30 03:58 1.7M
20260430T00Z_MSC_GDPS_WindSpeed_IsbL-0875_LatLon0.15_PT015H.grib2 2026-04-30 03:58 1.8M
20260430T00Z_MSC_GDPS_WindSpeed_IsbL-0900_LatLon0.15_PT015H.grib2 2026-04-30 03:58 1.8M
20260430T00Z_MSC_GDPS_WindSpeed_IsbL-0925_LatLon0.15_PT015H.grib2 2026-04-30 03:58 1.9M
20260430T00Z_MSC_GDPS_WindSpeed_IsbL-0950_LatLon0.15_PT015H.grib2 2026-04-30 03:58 1.9M
20260430T00Z_MSC_GDPS_WindSpeed_IsbL-0970_LatLon0.15_PT015H.grib2 2026-04-30 03:58 1.9M
20260430T00Z_MSC_GDPS_WindSpeed_IsbL-0985_LatLon0.15_PT015H.grib2 2026-04-30 03:58 1.9M
20260430T00Z_MSC_GDPS_WindSpeed_IsbL-1000_LatLon0.15_PT015H.grib2 2026-04-30 03:58 1.9M
20260430T00Z_MSC_GDPS_WindSpeed_IsbL-1015_LatLon0.15_PT015H.grib2 2026-04-30 03:58 1.8M
20260430T00Z_MSC_GDPS_WindU_AGL-10m_LatLon0.15_PT015H.grib2 2026-04-30 03:58 1.6M
20260430T00Z_MSC_GDPS_WindU_AGL-120m_LatLon0.15_PT015H.grib2 2026-04-30 03:58 1.0M
20260430T00Z_MSC_GDPS_WindU_AGL-40m_LatLon0.15_PT015H.grib2 2026-04-30 03:58 1.0M
20260430T00Z_MSC_GDPS_WindU_AGL-80m_LatLon0.15_PT015H.grib2 2026-04-30 03:58 1.0M
20260430T00Z_MSC_GDPS_WindU_IsbL-0001_LatLon0.15_PT015H.grib2 2026-04-30 03:58 506K
20260430T00Z_MSC_GDPS_WindU_IsbL-0005_LatLon0.15_PT015H.grib2 2026-04-30 03:58 701K
20260430T00Z_MSC_GDPS_WindU_IsbL-0010_LatLon0.15_PT015H.grib2 2026-04-30 03:58 711K
20260430T00Z_MSC_GDPS_WindU_IsbL-0020_LatLon0.15_PT015H.grib2 2026-04-30 03:58 739K
20260430T00Z_MSC_GDPS_WindU_IsbL-0030_LatLon0.15_PT015H.grib2 2026-04-30 03:58 746K
20260430T00Z_MSC_GDPS_WindU_IsbL-0050_LatLon0.15_PT015H.grib2 2026-04-30 03:58 703K
20260430T00Z_MSC_GDPS_WindU_IsbL-0100_LatLon0.15_PT015H.grib2 2026-04-30 03:58 925K
20260430T00Z_MSC_GDPS_WindU_IsbL-0150_LatLon0.15_PT015H.grib2 2026-04-30 03:58 1.0M
20260430T00Z_MSC_GDPS_WindU_IsbL-0175_LatLon0.15_PT015H.grib2 2026-04-30 03:58 1.0M
20260430T00Z_MSC_GDPS_WindU_IsbL-0200_LatLon0.15_PT015H.grib2 2026-04-30 03:58 847K
20260430T00Z_MSC_GDPS_WindU_IsbL-0225_LatLon0.15_PT015H.grib2 2026-04-30 03:58 858K
20260430T00Z_MSC_GDPS_WindU_IsbL-0250_LatLon0.15_PT015H.grib2 2026-04-30 03:58 861K
20260430T00Z_MSC_GDPS_WindU_IsbL-0275_LatLon0.15_PT015H.grib2 2026-04-30 03:58 888K
20260430T00Z_MSC_GDPS_WindU_IsbL-0300_LatLon0.15_PT015H.grib2 2026-04-30 03:58 879K
20260430T00Z_MSC_GDPS_WindU_IsbL-0350_LatLon0.15_PT015H.grib2 2026-04-30 03:58 893K
20260430T00Z_MSC_GDPS_WindU_IsbL-0400_LatLon0.15_PT015H.grib2 2026-04-30 03:58 898K
20260430T00Z_MSC_GDPS_WindU_IsbL-0450_LatLon0.15_PT015H.grib2 2026-04-30 03:58 1.1M
20260430T00Z_MSC_GDPS_WindU_IsbL-0500_LatLon0.15_PT015H.grib2 2026-04-30 03:58 1.1M
20260430T00Z_MSC_GDPS_WindU_IsbL-0550_LatLon0.15_PT015H.grib2 2026-04-30 03:58 1.1M
20260430T00Z_MSC_GDPS_WindU_IsbL-0600_LatLon0.15_PT015H.grib2 2026-04-30 03:58 1.2M
20260430T00Z_MSC_GDPS_WindU_IsbL-0650_LatLon0.15_PT015H.grib2 2026-04-30 03:58 1.2M
20260430T00Z_MSC_GDPS_WindU_IsbL-0700_LatLon0.15_PT015H.grib2 2026-04-30 03:58 1.2M
20260430T00Z_MSC_GDPS_WindU_IsbL-0750_LatLon0.15_PT015H.grib2 2026-04-30 03:58 1.3M
20260430T00Z_MSC_GDPS_WindU_IsbL-0800_LatLon0.15_PT015H.grib2 2026-04-30 03:58 1.4M
20260430T00Z_MSC_GDPS_WindU_IsbL-0850_LatLon0.15_PT015H.grib2 2026-04-30 03:58 1.4M
20260430T00Z_MSC_GDPS_WindU_IsbL-0875_LatLon0.15_PT015H.grib2 2026-04-30 03:58 1.5M
20260430T00Z_MSC_GDPS_WindU_IsbL-0900_LatLon0.15_PT015H.grib2 2026-04-30 03:58 1.5M
20260430T00Z_MSC_GDPS_WindU_IsbL-0925_LatLon0.15_PT015H.grib2 2026-04-30 03:58 1.5M
20260430T00Z_MSC_GDPS_WindU_IsbL-0950_LatLon0.15_PT015H.grib2 2026-04-30 03:58 1.4M
20260430T00Z_MSC_GDPS_WindU_IsbL-0970_LatLon0.15_PT015H.grib2 2026-04-30 03:58 1.4M
20260430T00Z_MSC_GDPS_WindU_IsbL-0985_LatLon0.15_PT015H.grib2 2026-04-30 03:58 1.4M
20260430T00Z_MSC_GDPS_WindU_IsbL-1000_LatLon0.15_PT015H.grib2 2026-04-30 03:58 1.7M
20260430T00Z_MSC_GDPS_WindU_IsbL-1015_LatLon0.15_PT015H.grib2 2026-04-30 03:58 1.7M
20260430T00Z_MSC_GDPS_WindV_AGL-10m_LatLon0.15_PT015H.grib2 2026-04-30 03:58 1.3M
20260430T00Z_MSC_GDPS_WindV_AGL-120m_LatLon0.15_PT015H.grib2 2026-04-30 03:58 1.0M
20260430T00Z_MSC_GDPS_WindV_AGL-40m_LatLon0.15_PT015H.grib2 2026-04-30 03:58 1.0M
20260430T00Z_MSC_GDPS_WindV_AGL-80m_LatLon0.15_PT015H.grib2 2026-04-30 03:58 1.0M
20260430T00Z_MSC_GDPS_WindV_IsbL-0001_LatLon0.15_PT015H.grib2 2026-04-30 03:58 716K
20260430T00Z_MSC_GDPS_WindV_IsbL-0005_LatLon0.15_PT015H.grib2 2026-04-30 03:58 771K
20260430T00Z_MSC_GDPS_WindV_IsbL-0010_LatLon0.15_PT015H.grib2 2026-04-30 03:58 802K
20260430T00Z_MSC_GDPS_WindV_IsbL-0020_LatLon0.15_PT015H.grib2 2026-04-30 03:58 855K
20260430T00Z_MSC_GDPS_WindV_IsbL-0030_LatLon0.15_PT015H.grib2 2026-04-30 03:58 857K
20260430T00Z_MSC_GDPS_WindV_IsbL-0050_LatLon0.15_PT015H.grib2 2026-04-30 03:58 908K
20260430T00Z_MSC_GDPS_WindV_IsbL-0100_LatLon0.15_PT015H.grib2 2026-04-30 03:58 1.1M
20260430T00Z_MSC_GDPS_WindV_IsbL-0150_LatLon0.15_PT015H.grib2 2026-04-30 03:58 1.0M
20260430T00Z_MSC_GDPS_WindV_IsbL-0175_LatLon0.15_PT015H.grib2 2026-04-30 03:58 1.0M
20260430T00Z_MSC_GDPS_WindV_IsbL-0200_LatLon0.15_PT015H.grib2 2026-04-30 03:58 850K
20260430T00Z_MSC_GDPS_WindV_IsbL-0225_LatLon0.15_PT015H.grib2 2026-04-30 03:58 916K
20260430T00Z_MSC_GDPS_WindV_IsbL-0250_LatLon0.15_PT015H.grib2 2026-04-30 03:58 856K
20260430T00Z_MSC_GDPS_WindV_IsbL-0275_LatLon0.15_PT015H.grib2 2026-04-30 03:58 883K
20260430T00Z_MSC_GDPS_WindV_IsbL-0300_LatLon0.15_PT015H.grib2 2026-04-30 03:58 932K
20260430T00Z_MSC_GDPS_WindV_IsbL-0350_LatLon0.15_PT015H.grib2 2026-04-30 03:58 885K
20260430T00Z_MSC_GDPS_WindV_IsbL-0400_LatLon0.15_PT015H.grib2 2026-04-30 03:58 888K
20260430T00Z_MSC_GDPS_WindV_IsbL-0450_LatLon0.15_PT015H.grib2 2026-04-30 03:58 890K
20260430T00Z_MSC_GDPS_WindV_IsbL-0500_LatLon0.15_PT015H.grib2 2026-04-30 03:58 1.1M
20260430T00Z_MSC_GDPS_WindV_IsbL-0550_LatLon0.15_PT015H.grib2 2026-04-30 03:58 1.1M
20260430T00Z_MSC_GDPS_WindV_IsbL-0600_LatLon0.15_PT015H.grib2 2026-04-30 03:58 1.1M
20260430T00Z_MSC_GDPS_WindV_IsbL-0650_LatLon0.15_PT015H.grib2 2026-04-30 03:58 1.2M
20260430T00Z_MSC_GDPS_WindV_IsbL-0700_LatLon0.15_PT015H.grib2 2026-04-30 03:58 1.2M
20260430T00Z_MSC_GDPS_WindV_IsbL-0750_LatLon0.15_PT015H.grib2 2026-04-30 03:58 1.3M
20260430T00Z_MSC_GDPS_WindV_IsbL-0800_LatLon0.15_PT015H.grib2 2026-04-30 03:58 1.3M
20260430T00Z_MSC_GDPS_WindV_IsbL-0850_LatLon0.15_PT015H.grib2 2026-04-30 03:58 1.4M
20260430T00Z_MSC_GDPS_WindV_IsbL-0875_LatLon0.15_PT015H.grib2 2026-04-30 03:58 1.4M
20260430T00Z_MSC_GDPS_WindV_IsbL-0900_LatLon0.15_PT015H.grib2 2026-04-30 03:58 1.5M
20260430T00Z_MSC_GDPS_WindV_IsbL-0925_LatLon0.15_PT015H.grib2 2026-04-30 03:58 1.4M
20260430T00Z_MSC_GDPS_WindV_IsbL-0950_LatLon0.15_PT015H.grib2 2026-04-30 03:58 1.4M
20260430T00Z_MSC_GDPS_WindV_IsbL-0970_LatLon0.15_PT015H.grib2 2026-04-30 03:58 1.4M
20260430T00Z_MSC_GDPS_WindV_IsbL-0985_LatLon0.15_PT015H.grib2 2026-04-30 03:58 1.4M
20260430T00Z_MSC_GDPS_WindV_IsbL-1000_LatLon0.15_PT015H.grib2 2026-04-30 03:58 1.4M
20260430T00Z_MSC_GDPS_WindV_IsbL-1015_LatLon0.15_PT015H.grib2 2026-04-30 03:58 1.4M